Year,Month,Day,Hour,Minute,Value (Times are PST for windgust in km/hr)
2010,07,10,00,00,17.70
2010,07,10,00,01,16.10
2010,07,10,00,02,20.90
2010,07,10,00,03,16.10
2010,07,10,00,04,12.90
2010,07,10,00,05,19.30
2010,07,10,00,06,16.10
2010,07,10,00,07,22.50
2010,07,10,00,08,14.50
2010,07,10,00,09,17.70
2010,07,10,00,10,19.30
2010,07,10,00,11,17.70
2010,07,10,00,12,22.50
2010,07,10,00,13,14.50
2010,07,10,00,14,16.10
2010,07,10,00,15,17.70
2010,07,10,00,16,11.30
2010,07,10,00,17,17.70
2010,07,10,00,18,14.50
2010,07,10,00,19,11.30
2010,07,10,00,20,14.50
2010,07,10,00,21,9.60
2010,07,10,00,22,11.30
2010,07,10,00,23,14.50
2010,07,10,00,24,16.10
2010,07,10,00,25,16.10
2010,07,10,00,26,16.10
2010,07,10,00,27,16.10
2010,07,10,00,28,9.60
2010,07,10,00,29,25.70
2010,07,10,00,30,22.50
2010,07,10,00,31,19.30
2010,07,10,00,32,19.30
2010,07,10,00,33,22.50
2010,07,10,00,34,14.50
2010,07,10,00,35,17.70
2010,07,10,00,36,12.90
2010,07,10,00,37,20.90
2010,07,10,00,38,16.10
2010,07,10,00,39,19.30
2010,07,10,00,40,19.30
2010,07,10,00,41,17.70
2010,07,10,00,42,16.10
2010,07,10,00,43,16.10
2010,07,10,00,44,19.30
2010,07,10,00,45,16.10
2010,07,10,00,46,19.30
2010,07,10,00,47,17.70
2010,07,10,00,48,19.30
2010,07,10,00,49,16.10
2010,07,10,00,50,17.70
2010,07,10,00,51,16.10
2010,07,10,00,52,9.60
2010,07,10,00,53,14.50
2010,07,10,00,54,11.30
2010,07,10,00,55,11.30
2010,07,10,00,56,14.50
2010,07,10,00,57,14.50
2010,07,10,00,58,20.90
2010,07,10,00,59,11.30
2010,07,10,01,00,14.50
2010,07,10,01,01,19.30
2010,07,10,01,02,20.90
2010,07,10,01,03,17.70
2010,07,10,01,04,22.50
2010,07,10,01,05,19.30
2010,07,10,01,06,17.70
2010,07,10,01,07,20.90
2010,07,10,01,08,19.30
2010,07,10,01,09,16.10
2010,07,10,01,10,19.30
2010,07,10,01,11,9.60
2010,07,10,01,12,16.10
2010,07,10,01,13,11.30
2010,07,10,01,14,12.90
2010,07,10,01,15,17.70
2010,07,10,01,16,14.50
2010,07,10,01,17,9.60
2010,07,10,01,18,11.30
2010,07,10,01,19,20.90
2010,07,10,01,20,22.50
2010,07,10,01,21,17.70
2010,07,10,01,22,16.10
2010,07,10,01,23,19.30
2010,07,10,01,24,19.30
2010,07,10,01,25,14.50
2010,07,10,01,26,20.90
2010,07,10,01,27,14.50
2010,07,10,01,28,19.30
2010,07,10,01,29,20.90
2010,07,10,01,30,17.70
2010,07,10,01,31,16.10
2010,07,10,01,32,17.70
2010,07,10,01,33,16.10
2010,07,10,01,34,12.90
2010,07,10,01,35,19.30
2010,07,10,01,36,17.70
2010,07,10,01,37,17.70
2010,07,10,01,38,14.50
2010,07,10,01,39,22.50
2010,07,10,01,40,22.50
2010,07,10,01,41,19.30
2010,07,10,01,42,19.30
2010,07,10,01,43,19.30
2010,07,10,01,44,16.10
2010,07,10,01,45,11.30
2010,07,10,01,46,12.90
2010,07,10,01,47,16.10
2010,07,10,01,48,19.30
2010,07,10,01,49,16.10
2010,07,10,01,50,19.30
2010,07,10,01,51,17.70
2010,07,10,01,52,16.10
2010,07,10,01,53,11.30
2010,07,10,01,54,17.70
2010,07,10,01,55,16.10
2010,07,10,01,56,17.70
2010,07,10,01,57,14.50
2010,07,10,01,58,16.10
2010,07,10,01,59,17.70
2010,07,10,02,00,14.50
2010,07,10,02,01,9.60
2010,07,10,02,02,9.60
2010,07,10,02,03,14.50
2010,07,10,02,04,14.50
2010,07,10,02,05,14.50
2010,07,10,02,06,11.30
2010,07,10,02,07,11.30
2010,07,10,02,08,12.90
2010,07,10,02,09,12.90
2010,07,10,02,10,11.30
2010,07,10,02,11,16.10
2010,07,10,02,12,16.10
2010,07,10,02,13,9.60
2010,07,10,02,14,14.50
2010,07,10,02,15,9.60
2010,07,10,02,16,14.50
2010,07,10,02,17,14.50
2010,07,10,02,18,14.50
2010,07,10,02,19,11.30
2010,07,10,02,20,11.30
2010,07,10,02,21,11.30
2010,07,10,02,22,14.50
2010,07,10,02,23,9.60
2010,07,10,02,24,17.70
2010,07,10,02,25,17.70
2010,07,10,02,26,11.30
2010,07,10,02,27,11.30
2010,07,10,02,28,9.60
2010,07,10,02,29,17.70
2010,07,10,02,30,9.60
2010,07,10,02,31,9.60
2010,07,10,02,32,14.50
2010,07,10,02,33,11.30
2010,07,10,02,34,11.30
2010,07,10,02,35,14.50
2010,07,10,02,36,9.60
2010,07,10,02,37,9.60
2010,07,10,02,38,9.60
2010,07,10,02,39,14.50
2010,07,10,02,40,8.10
2010,07,10,02,41,11.30
2010,07,10,02,42,9.60
2010,07,10,02,43,12.90
2010,07,10,02,44,14.50
2010,07,10,02,45,11.30
2010,07,10,02,46,11.30
2010,07,10,02,47,11.30
2010,07,10,02,48,9.60
2010,07,10,02,49,9.60
2010,07,10,02,50,14.50
2010,07,10,02,51,14.50
2010,07,10,02,52,9.60
2010,07,10,02,53,11.30
2010,07,10,02,54,11.30
2010,07,10,02,55,17.70
2010,07,10,02,56,16.10
2010,07,10,02,57,9.60
2010,07,10,02,58,12.90
2010,07,10,02,59,9.60
2010,07,10,03,00,9.60
2010,07,10,03,01,8.10
2010,07,10,03,02,9.60
2010,07,10,03,03,6.40
2010,07,10,03,04,8.10
2010,07,10,03,05,11.30
2010,07,10,03,06,8.10
2010,07,10,03,07,16.10
2010,07,10,03,08,8.10
2010,07,10,03,09,9.60
2010,07,10,03,10,3.20
2010,07,10,03,11,9.60
2010,07,10,03,12,8.10
2010,07,10,03,13,8.10
2010,07,10,03,14,9.60
2010,07,10,03,15,8.10
2010,07,10,03,16,8.10
2010,07,10,03,17,11.30
2010,07,10,03,18,6.40
2010,07,10,03,19,9.60
2010,07,10,03,20,9.60
2010,07,10,03,21,6.40
2010,07,10,03,22,8.10
2010,07,10,03,23,9.60
2010,07,10,03,24,11.30
2010,07,10,03,25,11.30
2010,07,10,03,26,11.30
2010,07,10,03,27,8.10
2010,07,10,03,28,6.40
2010,07,10,03,29,9.60
2010,07,10,03,30,11.30
2010,07,10,03,31,11.30
2010,07,10,03,32,6.40
2010,07,10,03,33,4.80
2010,07,10,03,34,9.60
2010,07,10,03,35,6.40
2010,07,10,03,36,9.60
2010,07,10,03,37,8.10
2010,07,10,03,38,9.60
2010,07,10,03,39,9.60
2010,07,10,03,40,9.60
2010,07,10,03,41,8.10
2010,07,10,03,42,12.90
2010,07,10,03,43,6.40
2010,07,10,03,44,3.20
2010,07,10,03,45,11.30
2010,07,10,03,46,12.90
2010,07,10,03,47,6.40
2010,07,10,03,48,4.80
2010,07,10,03,49,11.30
2010,07,10,03,50,11.30
2010,07,10,03,51,8.10
2010,07,10,03,52,4.80
2010,07,10,03,53,6.40
2010,07,10,03,54,6.40
2010,07,10,03,55,8.10
2010,07,10,03,56,9.60
2010,07,10,03,57,11.30
2010,07,10,03,58,11.30
2010,07,10,03,59,8.10
2010,07,10,04,00,4.80
2010,07,10,04,01,3.20
2010,07,10,04,02,4.80
2010,07,10,04,04,1.60
2010,07,10,04,05,1.60
2010,07,10,04,06,1.60
2010,07,10,04,07,4.80
2010,07,10,04,08,3.20
2010,07,10,04,09,1.60
2010,07,10,04,10,3.20
2010,07,10,04,12,1.60
2010,07,10,04,21,1.60
2010,07,10,04,23,1.60
2010,07,10,04,24,1.60
2010,07,10,04,26,1.60
2010,07,10,04,27,1.60
2010,07,10,04,28,4.80
2010,07,10,04,29,4.80
2010,07,10,04,30,6.40
2010,07,10,04,31,4.80
2010,07,10,04,32,6.40
2010,07,10,04,33,4.80
2010,07,10,04,34,6.40
2010,07,10,04,35,9.60
2010,07,10,04,36,6.40
2010,07,10,04,37,8.10
2010,07,10,04,38,6.40
2010,07,10,04,39,6.40
2010,07,10,04,40,8.10
2010,07,10,04,41,6.40
2010,07,10,04,42,4.80
2010,07,10,04,43,1.60
2010,07,10,04,44,9.60
2010,07,10,04,45,11.30
2010,07,10,04,46,8.10
2010,07,10,04,47,11.30
2010,07,10,04,48,9.60
2010,07,10,04,49,6.40
2010,07,10,04,50,4.80
2010,07,10,04,51,6.40
2010,07,10,04,52,8.10
2010,07,10,04,53,6.40
2010,07,10,04,54,6.40
2010,07,10,04,55,3.20
2010,07,10,04,56,6.40
2010,07,10,04,57,6.40
2010,07,10,04,58,6.40
2010,07,10,04,59,4.80
2010,07,10,05,00,9.60
2010,07,10,05,01,6.40
2010,07,10,05,02,6.40
2010,07,10,05,03,6.40
2010,07,10,05,04,3.20
2010,07,10,05,05,1.60
2010,07,10,05,06,1.60
2010,07,10,05,07,6.40
2010,07,10,05,08,3.20
2010,07,10,05,09,4.80
2010,07,10,05,10,3.20
2010,07,10,05,11,3.20
2010,07,10,05,12,3.20
2010,07,10,05,17,4.80
2010,07,10,05,18,4.80
2010,07,10,05,19,6.40
2010,07,10,05,20,3.20
2010,07,10,05,21,4.80
2010,07,10,05,22,4.80
2010,07,10,05,23,4.80
2010,07,10,05,24,3.20
2010,07,10,05,25,1.60
2010,07,10,05,26,1.60
2010,07,10,05,27,1.60
2010,07,10,05,28,4.80
2010,07,10,05,29,1.60
2010,07,10,05,30,1.60
2010,07,10,05,31,1.60
2010,07,10,05,32,3.20
2010,07,10,05,33,3.20
2010,07,10,05,39,1.60
2010,07,10,05,42,1.60
2010,07,10,05,44,3.20
2010,07,10,05,45,1.60
2010,07,10,05,46,9.60
2010,07,10,05,47,6.40
2010,07,10,05,48,6.40
2010,07,10,05,49,4.80
2010,07,10,05,50,4.80
2010,07,10,05,51,9.60
2010,07,10,05,52,4.80
2010,07,10,05,53,6.40
2010,07,10,05,54,4.80
2010,07,10,05,55,4.80
2010,07,10,05,56,4.80
2010,07,10,05,57,6.40
2010,07,10,05,58,8.10
2010,07,10,05,59,8.10
2010,07,10,06,00,4.80
2010,07,10,06,01,4.80
2010,07,10,06,02,3.20
2010,07,10,06,03,4.80
2010,07,10,06,04,1.60
2010,07,10,06,07,1.60
2010,07,10,06,08,1.60
2010,07,10,06,10,1.60
2010,07,10,06,11,1.60
2010,07,10,06,12,4.80
2010,07,10,06,13,3.20
2010,07,10,06,14,1.60
2010,07,10,06,15,1.60
2010,07,10,06,20,1.60
2010,07,10,07,01,1.60
2010,07,10,07,04,1.60
2010,07,10,07,05,1.60
2010,07,10,07,06,1.60
2010,07,10,07,07,1.60
2010,07,10,07,11,1.60
2010,07,10,07,22,1.60
2010,07,10,07,23,3.20
2010,07,10,07,28,6.40
2010,07,10,07,29,4.80
2010,07,10,07,31,6.40
2010,07,10,07,32,6.40
2010,07,10,07,33,3.20
2010,07,10,07,34,6.40
2010,07,10,07,35,4.80
2010,07,10,07,37,1.60
2010,07,10,07,38,1.60
2010,07,10,07,42,1.60
2010,07,10,07,43,4.80
2010,07,10,07,44,4.80
2010,07,10,07,45,3.20
2010,07,10,07,46,1.60
2010,07,10,07,47,1.60
2010,07,10,07,48,1.60
2010,07,10,07,49,4.80
2010,07,10,07,50,4.80
2010,07,10,07,51,3.20
2010,07,10,07,52,1.60
2010,07,10,07,53,4.80
2010,07,10,07,54,3.20
2010,07,10,07,55,1.60
2010,07,10,07,56,3.20
2010,07,10,07,57,4.80
2010,07,10,07,58,3.20
2010,07,10,07,59,3.20
2010,07,10,08,00,6.40
2010,07,10,08,01,6.40
2010,07,10,08,02,4.80
2010,07,10,08,03,3.20
2010,07,10,08,04,6.40
2010,07,10,08,05,6.40
2010,07,10,08,06,6.40
2010,07,10,08,07,4.80
2010,07,10,08,08,4.80
2010,07,10,08,09,4.80
2010,07,10,08,10,6.40
2010,07,10,08,11,6.40
2010,07,10,08,12,9.60
2010,07,10,08,13,9.60
2010,07,10,08,14,8.10
2010,07,10,08,15,8.10
2010,07,10,08,16,8.10
2010,07,10,08,17,9.60
2010,07,10,08,18,9.60
2010,07,10,08,19,8.10
2010,07,10,08,20,9.60
2010,07,10,08,21,11.30
2010,07,10,08,22,4.80
2010,07,10,08,23,9.60
2010,07,10,08,24,8.10
2010,07,10,08,25,8.10
2010,07,10,08,26,9.60
2010,07,10,08,27,11.30
2010,07,10,08,28,11.30
2010,07,10,08,29,8.10
2010,07,10,08,30,6.40
2010,07,10,08,31,3.20
2010,07,10,08,32,8.10
2010,07,10,08,33,9.60
2010,07,10,08,34,9.60
2010,07,10,08,35,4.80
2010,07,10,08,36,6.40
2010,07,10,08,37,4.80
2010,07,10,08,38,8.10
2010,07,10,08,39,8.10
2010,07,10,08,40,8.10
2010,07,10,08,41,6.40
2010,07,10,08,42,4.80
2010,07,10,08,43,6.40
2010,07,10,08,44,3.20
2010,07,10,08,45,4.80
2010,07,10,08,46,3.20
2010,07,10,08,47,4.80
2010,07,10,08,48,8.10
2010,07,10,08,49,6.40
2010,07,10,08,50,4.80
2010,07,10,08,51,4.80
2010,07,10,08,52,4.80
2010,07,10,08,53,4.80
2010,07,10,08,54,4.80
2010,07,10,08,57,1.60
2010,07,10,08,59,4.80
2010,07,10,09,00,6.40
2010,07,10,09,01,8.10
2010,07,10,09,02,9.60
2010,07,10,09,03,8.10
2010,07,10,09,04,4.80
2010,07,10,09,05,4.80
2010,07,10,09,06,4.80
2010,07,10,09,07,4.80
2010,07,10,09,08,3.20
2010,07,10,09,09,6.40
2010,07,10,09,10,6.40
2010,07,10,09,11,8.10
2010,07,10,09,12,9.60
2010,07,10,09,13,9.60
2010,07,10,09,14,8.10
2010,07,10,09,15,3.20
2010,07,10,09,16,8.10
2010,07,10,09,17,9.60
2010,07,10,09,18,6.40
2010,07,10,09,19,6.40
2010,07,10,09,20,11.30
2010,07,10,09,21,6.40
2010,07,10,09,22,4.80
2010,07,10,09,23,6.40
2010,07,10,09,24,6.40
2010,07,10,09,25,4.80
2010,07,10,09,26,3.20
2010,07,10,09,27,4.80
2010,07,10,09,28,3.20
2010,07,10,09,29,4.80
2010,07,10,09,30,4.80
2010,07,10,09,31,6.40
2010,07,10,09,32,4.80
2010,07,10,09,33,6.40
2010,07,10,09,34,6.40
2010,07,10,09,35,4.80
2010,07,10,09,36,1.60
2010,07,10,09,37,4.80
2010,07,10,09,38,6.40
2010,07,10,09,39,3.20
2010,07,10,09,40,6.40
2010,07,10,09,41,4.80
2010,07,10,09,42,4.80
2010,07,10,09,43,8.10
2010,07,10,09,44,6.40
2010,07,10,09,45,3.20
2010,07,10,09,46,6.40
2010,07,10,09,47,4.80
2010,07,10,09,48,3.20
2010,07,10,09,49,4.80
2010,07,10,09,50,4.80
2010,07,10,09,51,4.80
2010,07,10,09,52,3.20
2010,07,10,09,53,1.60
2010,07,10,09,54,4.80
2010,07,10,09,55,8.10
2010,07,10,09,56,1.60
2010,07,10,09,57,4.80
2010,07,10,09,58,6.40
2010,07,10,09,59,8.10
2010,07,10,10,00,4.80
2010,07,10,10,01,4.80
2010,07,10,10,02,8.10
2010,07,10,10,03,9.60
2010,07,10,10,04,11.30
2010,07,10,10,05,14.50
2010,07,10,10,06,9.60
2010,07,10,10,07,9.60
2010,07,10,10,08,8.10
2010,07,10,10,09,9.60
2010,07,10,10,10,9.60
2010,07,10,10,11,6.40
2010,07,10,10,12,8.10
2010,07,10,10,13,9.60
2010,07,10,10,14,8.10
2010,07,10,10,15,9.60
2010,07,10,10,16,8.10
2010,07,10,10,17,11.30
2010,07,10,10,18,11.30
2010,07,10,10,19,11.30
2010,07,10,10,20,9.60
2010,07,10,10,21,8.10
2010,07,10,10,22,11.30
2010,07,10,10,23,14.50
2010,07,10,10,24,16.10
2010,07,10,10,25,16.10
2010,07,10,10,26,9.60
2010,07,10,10,27,9.60
2010,07,10,10,28,14.50
2010,07,10,10,29,12.90
2010,07,10,10,30,9.60
2010,07,10,10,31,9.60
2010,07,10,10,32,11.30
2010,07,10,10,33,11.30
2010,07,10,10,34,6.40
2010,07,10,10,35,6.40
2010,07,10,10,36,9.60
2010,07,10,10,37,8.10
2010,07,10,10,38,6.40
2010,07,10,10,39,9.60
2010,07,10,10,40,11.30
2010,07,10,10,41,16.10
2010,07,10,10,42,11.30
2010,07,10,10,43,12.90
2010,07,10,10,44,9.60
2010,07,10,10,45,14.50
2010,07,10,10,46,11.30
2010,07,10,10,47,11.30
2010,07,10,10,48,9.60
2010,07,10,10,49,16.10
2010,07,10,10,50,9.60
2010,07,10,10,51,6.40
2010,07,10,10,52,8.10
2010,07,10,10,53,9.60
2010,07,10,10,54,11.30
2010,07,10,10,55,11.30
2010,07,10,10,56,9.60
2010,07,10,10,57,9.60
2010,07,10,10,58,9.60
2010,07,10,10,59,11.30
2010,07,10,11,00,14.50
2010,07,10,11,01,12.90
2010,07,10,11,02,14.50
2010,07,10,11,03,14.50
2010,07,10,11,04,16.10
2010,07,10,11,05,14.50
2010,07,10,11,06,11.30
2010,07,10,11,07,14.50
2010,07,10,11,08,12.90
2010,07,10,11,09,11.30
2010,07,10,11,10,9.60
2010,07,10,11,11,8.10
2010,07,10,11,12,11.30
2010,07,10,11,13,16.10
2010,07,10,11,14,6.40
2010,07,10,11,15,11.30
2010,07,10,11,16,9.60
2010,07,10,11,17,8.10
2010,07,10,11,18,14.50
2010,07,10,11,19,11.30
2010,07,10,11,20,6.40
2010,07,10,11,21,11.30
2010,07,10,11,22,11.30
2010,07,10,11,23,9.60
2010,07,10,11,24,9.60
2010,07,10,11,25,8.10
2010,07,10,11,26,12.90
2010,07,10,11,27,11.30
2010,07,10,11,28,11.30
2010,07,10,11,29,16.10
2010,07,10,11,30,8.10
2010,07,10,11,31,12.90
2010,07,10,11,32,14.50
2010,07,10,11,33,12.90
2010,07,10,11,34,9.60
2010,07,10,11,35,11.30
2010,07,10,11,36,14.50
2010,07,10,11,37,11.30
2010,07,10,11,38,9.60
2010,07,10,11,39,9.60
2010,07,10,11,40,4.80
2010,07,10,11,41,9.60
2010,07,10,11,42,6.40
2010,07,10,11,43,14.50
2010,07,10,11,44,6.40
2010,07,10,11,45,11.30
2010,07,10,11,46,16.10
2010,07,10,11,47,20.90
2010,07,10,11,48,8.10
2010,07,10,11,49,6.40
2010,07,10,11,50,8.10
2010,07,10,11,51,6.40
2010,07,10,11,52,8.10
2010,07,10,11,53,4.80
2010,07,10,11,54,9.60
2010,07,10,11,55,11.30
2010,07,10,11,56,6.40
2010,07,10,11,57,4.80
2010,07,10,11,58,9.60
2010,07,10,11,59,9.60
2010,07,10,12,00,6.40
2010,07,10,12,01,9.60
2010,07,10,12,02,6.40
2010,07,10,12,03,16.10
2010,07,10,12,04,14.50
2010,07,10,12,05,14.50
2010,07,10,12,06,11.30
2010,07,10,12,07,11.30
2010,07,10,12,08,9.60
2010,07,10,12,09,11.30
2010,07,10,12,10,6.40
2010,07,10,12,11,8.10
2010,07,10,12,12,9.60
2010,07,10,12,13,9.60
2010,07,10,12,14,8.10
2010,07,10,12,15,17.70
2010,07,10,12,16,8.10
2010,07,10,12,17,9.60
2010,07,10,12,18,11.30
2010,07,10,12,19,17.70
2010,07,10,12,20,14.50
2010,07,10,12,21,12.90
2010,07,10,12,22,9.60
2010,07,10,12,23,9.60
2010,07,10,12,24,16.10
2010,07,10,12,25,14.50
2010,07,10,12,26,12.90
2010,07,10,12,27,1.60
2010,07,10,12,28,16.10
2010,07,10,12,29,9.60
2010,07,10,12,30,20.90
2010,07,10,12,31,17.70
2010,07,10,12,32,16.10
2010,07,10,12,33,9.60
2010,07,10,12,34,9.60
2010,07,10,12,35,4.80
2010,07,10,12,36,14.50
2010,07,10,12,37,14.50
2010,07,10,12,38,9.60
2010,07,10,12,39,8.10
2010,07,10,12,40,8.10
2010,07,10,12,41,16.10
2010,07,10,12,42,11.30
2010,07,10,12,43,14.50
2010,07,10,12,44,8.10
2010,07,10,12,45,17.70
2010,07,10,12,46,14.50
2010,07,10,12,47,4.80
2010,07,10,12,48,17.70
2010,07,10,12,49,19.30
2010,07,10,12,50,9.60
2010,07,10,12,51,11.30
2010,07,10,12,52,14.50
2010,07,10,12,53,9.60
2010,07,10,12,54,16.10
2010,07,10,12,55,19.30
2010,07,10,12,56,16.10
2010,07,10,12,57,14.50
2010,07,10,12,58,12.90
2010,07,10,12,59,12.90
2010,07,10,13,00,14.50
2010,07,10,13,01,16.10
2010,07,10,13,02,16.10
2010,07,10,13,03,8.10
2010,07,10,13,04,9.60
2010,07,10,13,05,17.70
2010,07,10,13,06,16.10
2010,07,10,13,07,11.30
2010,07,10,13,08,17.70
2010,07,10,13,09,14.50
2010,07,10,13,10,14.50
2010,07,10,13,11,11.30
2010,07,10,13,12,12.90
2010,07,10,13,13,11.30
2010,07,10,13,14,12.90
2010,07,10,13,15,9.60
2010,07,10,13,16,14.50
2010,07,10,13,17,11.30
2010,07,10,13,18,11.30
2010,07,10,13,19,11.30
2010,07,10,13,20,16.10
2010,07,10,13,21,11.30
2010,07,10,13,22,6.40
2010,07,10,13,23,9.60
2010,07,10,13,24,14.50
2010,07,10,13,25,8.10
2010,07,10,13,26,11.30
2010,07,10,13,27,9.60
2010,07,10,13,28,14.50
2010,07,10,13,29,12.90
2010,07,10,13,30,9.60
2010,07,10,13,31,11.30
2010,07,10,13,32,8.10
2010,07,10,13,33,11.30
2010,07,10,13,34,3.20
2010,07,10,13,35,6.40
2010,07,10,13,36,8.10
2010,07,10,13,37,9.60
2010,07,10,13,38,3.20
2010,07,10,13,39,8.10
2010,07,10,13,40,8.10
2010,07,10,13,41,9.60
2010,07,10,13,42,9.60
2010,07,10,13,43,14.50
2010,07,10,13,44,9.60
2010,07,10,13,45,12.90
2010,07,10,13,46,9.60
2010,07,10,13,47,4.80
2010,07,10,13,48,8.10
2010,07,10,13,49,14.50
2010,07,10,13,50,11.30
2010,07,10,13,51,8.10
2010,07,10,13,52,6.40
2010,07,10,13,53,9.60
2010,07,10,13,54,11.30
2010,07,10,13,55,12.90
2010,07,10,13,56,11.30
2010,07,10,13,57,17.70
2010,07,10,13,58,17.70
2010,07,10,13,59,9.60
2010,07,10,14,00,8.10
2010,07,10,14,01,6.40
2010,07,10,14,02,6.40
2010,07,10,14,03,4.80
2010,07,10,14,04,9.60
2010,07,10,14,05,9.60
2010,07,10,14,06,16.10
2010,07,10,14,07,9.60
2010,07,10,14,08,9.60
2010,07,10,14,09,11.30
2010,07,10,14,10,17.70
2010,07,10,14,11,16.10
2010,07,10,14,12,19.30
2010,07,10,14,13,14.50
2010,07,10,14,14,17.70
2010,07,10,14,15,12.90
2010,07,10,14,16,17.70
2010,07,10,14,17,16.10
2010,07,10,14,18,17.70
2010,07,10,14,19,17.70
2010,07,10,14,20,14.50
2010,07,10,14,21,16.10
2010,07,10,14,22,17.70
2010,07,10,14,23,19.30
2010,07,10,14,24,16.10
2010,07,10,14,25,11.30
2010,07,10,14,26,11.30
2010,07,10,14,27,9.60
2010,07,10,14,28,12.90
2010,07,10,14,29,8.10
2010,07,10,14,30,8.10
2010,07,10,14,31,9.60
2010,07,10,14,32,17.70
2010,07,10,14,33,16.10
2010,07,10,14,34,17.70
2010,07,10,14,35,16.10
2010,07,10,14,36,14.50
2010,07,10,14,37,14.50
2010,07,10,14,38,16.10
2010,07,10,14,39,16.10
2010,07,10,14,40,16.10
2010,07,10,14,41,16.10
2010,07,10,14,42,14.50
2010,07,10,14,43,14.50
2010,07,10,14,44,9.60
2010,07,10,14,45,16.10
2010,07,10,14,46,19.30
2010,07,10,14,47,14.50
2010,07,10,14,48,11.30
2010,07,10,14,49,19.30
2010,07,10,14,50,16.10
2010,07,10,14,51,17.70
2010,07,10,14,52,16.10
2010,07,10,14,53,17.70
2010,07,10,14,54,16.10
2010,07,10,14,55,16.10
2010,07,10,14,56,14.50
2010,07,10,14,57,17.70
2010,07,10,14,58,16.10
2010,07,10,14,59,11.30
2010,07,10,15,00,16.10
2010,07,10,15,01,19.30
2010,07,10,15,02,16.10
2010,07,10,15,03,16.10
2010,07,10,15,04,14.50
2010,07,10,15,05,16.10
2010,07,10,15,06,20.90
2010,07,10,15,07,17.70
2010,07,10,15,08,17.70
2010,07,10,15,09,14.50
2010,07,10,15,10,16.10
2010,07,10,15,11,19.30
2010,07,10,15,12,17.70
2010,07,10,15,13,14.50
2010,07,10,15,14,17.70
2010,07,10,15,15,16.10
2010,07,10,15,16,11.30
2010,07,10,15,17,9.60
2010,07,10,15,18,14.50
2010,07,10,15,19,9.60
2010,07,10,15,20,11.30
2010,07,10,15,21,16.10
2010,07,10,15,22,16.10
2010,07,10,15,23,11.30
2010,07,10,15,24,16.10
2010,07,10,15,25,11.30
2010,07,10,15,26,11.30
2010,07,10,15,27,17.70
2010,07,10,15,28,11.30
2010,07,10,15,29,9.60
2010,07,10,15,30,9.60
2010,07,10,15,31,11.30
2010,07,10,15,32,6.40
2010,07,10,15,33,8.10
2010,07,10,15,34,14.50
2010,07,10,15,35,6.40
2010,07,10,15,36,11.30
2010,07,10,15,37,12.90
2010,07,10,15,38,16.10
2010,07,10,15,39,9.60
2010,07,10,15,40,12.90
2010,07,10,15,41,19.30
2010,07,10,15,42,14.50
2010,07,10,15,43,16.10
2010,07,10,15,44,11.30
2010,07,10,15,45,11.30
2010,07,10,15,46,9.60
2010,07,10,15,47,14.50
2010,07,10,15,48,9.60
2010,07,10,15,49,17.70
2010,07,10,15,50,9.60
2010,07,10,15,51,14.50
2010,07,10,15,52,6.40
2010,07,10,15,53,11.30
2010,07,10,15,54,6.40
2010,07,10,15,55,8.10
2010,07,10,15,56,11.30
2010,07,10,15,57,9.60
2010,07,10,15,58,8.10
2010,07,10,15,59,6.40
2010,07,10,16,00,6.40
2010,07,10,16,01,11.30
2010,07,10,16,02,14.50
2010,07,10,16,03,8.10
2010,07,10,16,04,19.30
2010,07,10,16,05,8.10
2010,07,10,16,06,16.10
2010,07,10,16,07,8.10
2010,07,10,16,08,16.10
2010,07,10,16,09,14.50
2010,07,10,16,10,9.60
2010,07,10,16,11,9.60
2010,07,10,16,12,8.10
2010,07,10,16,13,16.10
2010,07,10,16,14,11.30
2010,07,10,16,15,11.30
2010,07,10,16,16,9.60
2010,07,10,16,17,8.10
2010,07,10,16,18,11.30
2010,07,10,16,19,9.60
2010,07,10,16,20,4.80
2010,07,10,16,21,11.30
2010,07,10,16,22,16.10
2010,07,10,16,23,11.30
2010,07,10,16,24,4.80
2010,07,10,16,25,14.50
2010,07,10,16,26,4.80
2010,07,10,16,27,6.40
2010,07,10,16,28,11.30
2010,07,10,16,29,11.30
2010,07,10,16,30,8.10
2010,07,10,16,31,16.10
2010,07,10,16,32,14.50
2010,07,10,16,33,6.40
2010,07,10,16,34,8.10
2010,07,10,16,35,8.10
2010,07,10,16,36,16.10
2010,07,10,16,37,16.10
2010,07,10,16,38,8.10
2010,07,10,16,39,17.70
2010,07,10,16,40,6.40
2010,07,10,16,41,6.40
2010,07,10,16,42,9.60
2010,07,10,16,43,14.50
2010,07,10,16,44,9.60
2010,07,10,16,45,14.50
2010,07,10,16,46,8.10
2010,07,10,16,47,4.80
2010,07,10,16,48,8.10
2010,07,10,16,49,6.40
2010,07,10,16,50,3.20
2010,07,10,16,51,8.10
2010,07,10,16,52,11.30
2010,07,10,16,53,11.30
2010,07,10,16,54,9.60
2010,07,10,16,55,9.60
2010,07,10,16,56,6.40
2010,07,10,16,57,8.10
2010,07,10,16,58,8.10
2010,07,10,16,59,14.50
2010,07,10,17,00,6.40
2010,07,10,17,01,16.10
2010,07,10,17,02,11.30
2010,07,10,17,03,8.10
2010,07,10,17,04,14.50
2010,07,10,17,05,8.10
2010,07,10,17,06,20.90
2010,07,10,17,07,8.10
2010,07,10,17,08,12.90
2010,07,10,17,09,8.10
2010,07,10,17,10,6.40
2010,07,10,17,11,8.10
2010,07,10,17,12,8.10
2010,07,10,17,13,4.80
2010,07,10,17,14,4.80
2010,07,10,17,15,4.80
2010,07,10,17,16,8.10
2010,07,10,17,17,12.90
2010,07,10,17,18,6.40
2010,07,10,17,19,14.50
2010,07,10,17,20,8.10
2010,07,10,17,21,14.50
2010,07,10,17,22,14.50
2010,07,10,17,23,11.30
2010,07,10,17,24,8.10
2010,07,10,17,25,1.60
2010,07,10,17,26,3.20
2010,07,10,17,27,6.40
2010,07,10,17,28,14.50
2010,07,10,17,29,17.70
2010,07,10,17,30,8.10
2010,07,10,17,31,3.20
2010,07,10,17,32,11.30
2010,07,10,17,33,8.10
2010,07,10,17,34,14.50
2010,07,10,17,35,8.10
2010,07,10,17,36,8.10
2010,07,10,17,37,8.10
2010,07,10,17,38,11.30
2010,07,10,17,39,8.10
2010,07,10,17,40,6.40
2010,07,10,17,41,8.10
2010,07,10,17,42,6.40
2010,07,10,17,43,3.20
2010,07,10,17,44,6.40
2010,07,10,17,45,9.60
2010,07,10,17,46,6.40
2010,07,10,17,47,3.20
2010,07,10,17,48,4.80
2010,07,10,17,49,6.40
2010,07,10,17,50,1.60
2010,07,10,17,51,1.60
2010,07,10,17,52,1.60
2010,07,10,17,53,3.20
2010,07,10,17,54,3.20
2010,07,10,17,55,3.20
2010,07,10,17,56,4.80
2010,07,10,17,57,4.80
2010,07,10,17,58,8.10
2010,07,10,17,59,6.40
2010,07,10,18,00,1.60
2010,07,10,18,01,1.60
2010,07,10,18,02,8.10
2010,07,10,18,03,4.80
2010,07,10,18,04,4.80
2010,07,10,18,05,4.80
2010,07,10,18,06,4.80
2010,07,10,18,07,6.40
2010,07,10,18,08,6.40
2010,07,10,18,09,6.40
2010,07,10,18,10,1.60
2010,07,10,18,11,9.60
2010,07,10,18,12,4.80
2010,07,10,18,13,4.80
2010,07,10,18,14,3.20
2010,07,10,18,15,1.60
2010,07,10,18,16,6.40
2010,07,10,18,17,6.40
2010,07,10,18,18,9.60
2010,07,10,18,19,6.40
2010,07,10,18,20,6.40
2010,07,10,18,21,4.80
2010,07,10,18,22,6.40
2010,07,10,18,23,6.40
2010,07,10,18,24,8.10
2010,07,10,18,25,9.60
2010,07,10,18,26,9.60
2010,07,10,18,27,9.60
2010,07,10,18,28,9.60
2010,07,10,18,29,9.60
2010,07,10,18,30,8.10
2010,07,10,18,31,8.10
2010,07,10,18,32,8.10
2010,07,10,18,33,8.10
2010,07,10,18,34,9.60
2010,07,10,18,35,14.50
2010,07,10,18,36,8.10
2010,07,10,18,37,11.30
2010,07,10,18,38,8.10
2010,07,10,18,39,11.30
2010,07,10,18,40,11.30
2010,07,10,18,41,8.10
2010,07,10,18,42,6.40
2010,07,10,18,43,9.60
2010,07,10,18,44,6.40
2010,07,10,18,45,6.40
2010,07,10,18,46,8.10
2010,07,10,18,47,14.50
2010,07,10,18,48,11.30
2010,07,10,18,49,4.80
2010,07,10,18,50,4.80
2010,07,10,18,51,8.10
2010,07,10,18,52,6.40
2010,07,10,18,53,3.20
2010,07,10,18,54,1.60
2010,07,10,18,55,6.40
2010,07,10,18,56,9.60
2010,07,10,18,57,9.60
2010,07,10,18,58,4.80
2010,07,10,18,59,8.10
2010,07,10,19,00,4.80
2010,07,10,19,01,8.10
2010,07,10,19,02,11.30
2010,07,10,19,03,11.30
2010,07,10,19,04,9.60
2010,07,10,19,05,12.90
2010,07,10,19,06,9.60
2010,07,10,19,07,9.60
2010,07,10,19,08,11.30
2010,07,10,19,09,8.10
2010,07,10,19,10,6.40
2010,07,10,19,11,8.10
2010,07,10,19,12,8.10
2010,07,10,19,13,11.30
2010,07,10,19,14,9.60
2010,07,10,19,15,8.10
2010,07,10,19,16,6.40
2010,07,10,19,17,8.10
2010,07,10,19,18,9.60
2010,07,10,19,19,9.60
2010,07,10,19,20,9.60
2010,07,10,19,21,11.30
2010,07,10,19,22,9.60
2010,07,10,19,23,14.50
2010,07,10,19,24,19.30